When you browse on this site, cookies collect data to enhance your experience and personalize the content and advertising you see.
Visit our Privacy Policy to learn more. By continuing to use the site, you agree to this use of cookies and data.
  • In Lithuania
  • List of Countries
  • For 7 days
  • Water Temperature
  • Satellite Maps
  • Weather Map
  • Weather Widgets
  • user-avatar
    Login

    Hourly Weather Molodogvardejsk

    Today, 19 November, Monday

    Time Temperature Precipitation Wind Pressure Humidity
    00:00 -2°C° 0 mm 1 mps 750 mmHg 70%
    01:00 -3°C° 0 mm 1 mps 749 mmHg 72%
    02:00 -3°C° 0 mm 1 mps 749 mmHg 73%
    03:00 -4°C° 0 mm 1 mps 749 mmHg 71%
    04:00 -4°C° 0 mm 1 mps 749 mmHg 71%
    05:00 -4°C° 0 mm 1 mps 749 mmHg 71%
    06:00 -4°C° 0 mm 1 mps 750 mmHg 71%
    07:00 -3°C° 0 mm 1 mps 750 mmHg 71%
    08:00 -5°C° 0 mm 2 mps 750 mmHg 70%
    09:00 -5°C° 0 mm 2 mps 750 mmHg 69%
    10:00 -4°C° 0 mm 2 mps 750 mmHg 67%
    11:00 -2°C° 0 mm 3 mps 750 mmHg 65%
    12:00 -1°C° 0 mm 3 mps 750 mmHg 63%
    13:00 -1°C° 0 mm 3 mps 750 mmHg 65%
    14:00 -1°C° 0 mm 3 mps 750 mmHg 66%
    15:00 -1°C° 0 mm 3 mps 749 mmHg 67%
    16:00 -2°C° 0 mm 3 mps 749 mmHg 69%
    17:00 -2°C° 0 mm 3 mps 749 mmHg 70%
    18:00 -4°C° 0 mm 3 mps 749 mmHg 72%
    19:00 -4°C° 0 mm 3 mps 749 mmHg 71%
    20:00 -4°C° 0 mm 3 mps 748 mmHg 70%
    21:00 -4°C° 0 mm 3 mps 748 mmHg 69%
    22:00 -4°C° 0 mm 3 mps 748 mmHg 70%
    23:00 -4°C° 0 mm 3 mps 748 mmHg 71%

    Tomorrow, 20 November, Tuesday

    Time Temperature Precipitation Wind Pressure Humidity
    00:00 -4°C° 0 mm 3 mps 747 mmHg 72%
    01:00 -4°C° 0 mm 3 mps 747 mmHg 74%
    02:00 -4°C° 0 mm 3 mps 747 mmHg 76%
    03:00 -4°C° 0 mm 3 mps 747 mmHg 78%
    04:00 -4°C° 0.1 mm 4 mps 746 mmHg 78%
    05:00 -4°C° 0.1 mm 4 mps 746 mmHg 79%
    06:00 -4°C° 0.1 mm 4 mps 746 mmHg 79%
    07:00 -3°C° 0.3 mm 4 mps 746 mmHg 80%
    08:00 -3°C° 0.3 mm 4 mps 746 mmHg 81%
    09:00 -3°C° 0.3 mm 4 mps 745 mmHg 82%
    10:00 -3°C° 0.6 mm 4 mps 745 mmHg 84%
    11:00 -4°C° 0.6 mm 5 mps 745 mmHg 86%
    12:00 -2°C° 0.6 mm 5 mps 745 mmHg 89%
    13:00 -2°C° 0.5 mm 5 mps 745 mmHg 89%
    14:00 -2°C° 0.5 mm 5 mps 745 mmHg 90%
    15:00 -2°C° 0.5 mm 5 mps 744 mmHg 91%
    16:00 -2°C° 0.3 mm 5 mps 745 mmHg 90%
    17:00 -4°C° 0.3 mm 6 mps 745 mmHg 90%
    18:00 -4°C° 0.3 mm 6 mps 745 mmHg 89%
    19:00 -4°C° 0 mm 5 mps 745 mmHg 88%
    20:00 -4°C° 0 mm 5 mps 745 mmHg 86%
    21:00 -4°C° 0 mm 4 mps 746 mmHg 85%
    22:00 -4°C° 0 mm 4 mps 746 mmHg 85%
    23:00 -5°C° 0 mm 4 mps 746 mmHg 84%

    Day after tomorrow, 21 November, Wednesday

    Time Temperature Precipitation Wind Pressure Humidity
    00:00 -6°C° 0 mm 3 mps 746 mmHg 84%
    01:00 -6°C° 0 mm 3 mps 747 mmHg 84%
    02:00 -7°C° 0 mm 3 mps 747 mmHg 85%
    03:00 -6°C° 0 mm 2 mps 747 mmHg 85%
    04:00 -7°C° 0 mm 2 mps 747 mmHg 86%
    05:00 -8°C° 0 mm 3 mps 747 mmHg 88%
    06:00 -8°C° 0 mm 3 mps 747 mmHg 89%
    07:00 -7°C° 0 mm 2 mps 747 mmHg 89%
    08:00 -6°C° 0 mm 2 mps 747 mmHg 90%
    09:00 -6°C° 0 mm 2 mps 747 mmHg 91%
    10:00 -5°C° 0 mm 2 mps 747 mmHg 90%
    11:00 -4°C° 0 mm 2 mps 747 mmHg 88%
    12:00 -2°C° 0 mm 2 mps 747 mmHg 87%
    13:00 -2°C° 0 mm 2 mps 747 mmHg 87%
    14:00 -2°C° 0 mm 2 mps 746 mmHg 87%
    15:00 -2°C° 0 mm 2 mps 746 mmHg 87%
    16:00 -3°C° 0 mm 2 mps 746 mmHg 88%
    17:00 -4°C° 0 mm 2 mps 746 mmHg 88%
    18:00 -5°C° 0 mm 2 mps 746 mmHg 88%
    19:00 -5°C° 0 mm 2 mps 746 mmHg 87%
    20:00 -5°C° 0 mm 2 mps 746 mmHg 87%
    21:00 -6°C° 0 mm 2 mps 746 mmHg 86%
    22:00 -6°C° 0 mm 2 mps 746 mmHg 86%
    23:00 -6°C° 0 mm 2 mps 746 mmHg 86%

    22 November, Thursday

    Time Temperature Precipitation Wind Pressure Humidity
    00:00 -6°C° 0 mm 2 mps 746 mmHg 87%
    01:00 -6°C° 0 mm 2 mps 746 mmHg 87%
    02:00 -7°C° 0 mm 2 mps 746 mmHg 88%
    03:00 -7°C° 0 mm 2 mps 746 mmHg 89%
    04:00 -7°C° 0 mm 2 mps 746 mmHg 90%
    05:00 -7°C° 0 mm 2 mps 746 mmHg 91%
    06:00 -8°C° 0 mm 3 mps 746 mmHg 92%
    07:00 -8°C° 0 mm 3 mps 746 mmHg 92%
    08:00 -7°C° 0 mm 3 mps 746 mmHg 91%
    09:00 -7°C° 0 mm 3 mps 746 mmHg 91%
    10:00 -6°C° 0 mm 3 mps 746 mmHg 87%
    11:00 -5°C° 0 mm 3 mps 746 mmHg 82%
    12:00 -4°C° 0 mm 3 mps 746 mmHg 78%
    13:00 -4°C° 0 mm 3 mps 746 mmHg 78%
    14:00 -4°C° 0 mm 3 mps 746 mmHg 78%
    15:00 -4°C° 0 mm 3 mps 745 mmHg 78%
    16:00 -5°C° 0 mm 3 mps 745 mmHg 80%
    17:00 -6°C° 0 mm 3 mps 745 mmHg 81%
    18:00 -7°C° 0 mm 3 mps 745 mmHg 83%
    19:00 -7°C° 0 mm 3 mps 745 mmHg 83%
    20:00 -7°C° 0 mm 3 mps 745 mmHg 83%
    21:00 -7°C° 0 mm 3 mps 745 mmHg 82%
    22:00 -8°C° 0 mm 4 mps 745 mmHg 83%
    23:00 -8°C° 0 mm 4 mps 745 mmHg 83%

    23 November, Friday

    Time Temperature Precipitation Wind Pressure Humidity
    00:00 -8°C° 0 mm 4 mps 745 mmHg 84%
    01:00 -8°C° 0 mm 4 mps 745 mmHg 85%
    02:00 -8°C° 0 mm 4 mps 745 mmHg 86%
    03:00 -8°C° 0 mm 4 mps 745 mmHg 87%
    04:00 -8°C° 0 mm 4 mps 745 mmHg 88%
    05:00 -9°C° 0 mm 4 mps 746 mmHg 89%
    06:00 -9°C° 0 mm 4 mps 746 mmHg 90%
    07:00 -8°C° 0 mm 4 mps 747 mmHg 90%
    08:00 -8°C° 0 mm 4 mps 747 mmHg 90%
    09:00 -7°C° 0 mm 4 mps 748 mmHg 90%
    10:00 -5°C° 0 mm 4 mps 749 mmHg 87%
    11:00 -4°C° 0 mm 4 mps 749 mmHg 84%
    12:00 -3°C° 0 mm 4 mps 750 mmHg 81%
    13:00 -3°C° 0 mm 4 mps 750 mmHg 79%
    14:00 -2°C° 0 mm 3 mps 751 mmHg 78%
    15:00 -2°C° 0 mm 3 mps 751 mmHg 77%
    16:00 -4°C° 0 mm 3 mps 752 mmHg 77%
    17:00 -5°C° 0 mm 3 mps 752 mmHg 77%
    18:00 -6°C° 0 mm 3 mps 753 mmHg 78%
    19:00 -6°C° 0 mm 2 mps 753 mmHg 78%
    20:00 -6°C° 0 mm 2 mps 754 mmHg 77%
    21:00 -7°C° 0 mm 2 mps 754 mmHg 77%
    22:00 -6°C° 0 mm 1 mps 755 mmHg 77%
    23:00 -6°C° 0 mm 1 mps 755 mmHg 77%

    24 November, Saturday

    Time Temperature Precipitation Wind Pressure Humidity
    00:00 -7°C° 0 mm 1 mps 755 mmHg 77%
    01:00 -7°C° 0 mm 1 mps 755 mmHg 77%
    02:00 -7°C° 0 mm 0 mps 755 mmHg 77%
    03:00 -7°C° 0 mm 0 mps 755 mmHg 77%
    04:00 -7°C° 0 mm 0 mps 755 mmHg 77%
    05:00 -8°C° 0 mm 0 mps 755 mmHg 78%
    06:00 -8°C° 0 mm 0 mps 755 mmHg 78%
    07:00 -7°C° 0 mm 1 mps 755 mmHg 77%
    08:00 -7°C° 0 mm 1 mps 755 mmHg 77%
    09:00 -7°C° 0 mm 1 mps 755 mmHg 76%
    10:00 -4°C° 0 mm 1 mps 755 mmHg 74%
    11:00 -3°C° 0 mm 1 mps 755 mmHg 71%
    12:00 -2°C° 0 mm 1 mps 755 mmHg 69%
    13:00 -2°C° 0 mm 1 mps 755 mmHg 71%
    14:00 -2°C° 0 mm 1 mps 754 mmHg 73%
    15:00 -2°C° 0 mm 1 mps 754 mmHg 75%
    16:00 -3°C° 0 mm 1 mps 754 mmHg 76%
    17:00 -4°C° 0 mm 1 mps 753 mmHg 78%
    18:00 -6°C° 0 mm 1 mps 753 mmHg 80%
    19:00 -6°C° 0 mm 1 mps 753 mmHg 79%
    20:00 -8°C° 0 mm 2 mps 752 mmHg 79%
    21:00 -8°C° 0 mm 2 mps 752 mmHg 78%
    22:00 -8°C° 0 mm 2 mps 752 mmHg 78%
    23:00 -8°C° 0 mm 2 mps 752 mmHg 78%
    Show more